Location: Area 52 Observatory
(34.2620°N, 119.2590°W)
Time: 10:26:52
(UTC-07:00)

Hubble Space Telescope - Pass Details

Date: 23 March 2019
Orbit: 536 x 540 km, 28.5° (Epoch: 19 October)

Event Time Altitude Azimuth Distance (km) Brightness Sun altitude
Rises 19:40:43 0° 209° (SSW) 2,668 4.6 -7.0°
Reaches altitude 10° 19:44:30 10° 174° (S) 1,781 3.3 -7.7°
Maximum altitude 19:45:46 11° 156° (SSE) 1,705 3.0 -8.0°
Drops below altitude 10° 19:47:02 10° 138° (SE) 1,783 3.0 -8.2°
Enters shadow 19:48:05 - 125° (SE) 1,952 3.1 -8.5°
